owner,sensor,date,latitude,longitude,vertical_datum,sea_water_practical_salinity,qcFlag 
DISL,ioos:station:DISL:KATA:1,2013-03-01T00:00:00Z,30.2583,-88.2131,3.734,13.86,1111122 
DISL,ioos:station:DISL:KATA:1,2013-03-01T00:30:00Z,30.2583,-88.2131,3.717,13.77,1111122 
DISL,ioos:station:DISL:KATA:1,2013-03-01T01:00:00Z,30.2583,-88.2131,3.693,13.63,1111122 
DISL,ioos:station:DISL:KATA:1,2013-03-01T01:30:00Z,30.2583,-88.2131,3.675,13.13,1111122 
DISL,ioos:station:DISL:KATA:1,2013-03-01T02:00:00Z,30.2583,-88.2131,3.657,13.6,1111122 
DISL,ioos:station:DISL:KATA:1,2013-03-01T02:30:00Z,30.2583,-88.2131,3.657,12.63,1111122 
DISL,ioos:station:DISL:KATA:1,2013-03-01T03:00:00Z,30.2583,-88.2131,3.665,12.9,1111122 
DISL,ioos:station:DISL:KATA:1,2013-03-01T03:30:00Z,30.2583,-88.2131,3.672,12.86,1111122 
DISL,ioos:station:DISL:KATA:1,2013-03-01T04:00:00Z,30.2583,-88.2131,3.679,12.76,1111122 
DISL,ioos:station:DISL:KATA:1,2013-03-01T04:30:00Z,30.2583,-88.2131,3.68,12.98,1111122 
DISL,ioos:station:DISL:KATA:1,2013-03-01T05:00:00Z,30.2583,-88.2131,3.688,13.01,1111122 
DISL,ioos:station:DISL:KATA:1,2013-03-01T05:30:00Z,30.2583,-88.2131,3.69,13.1,1111122 
DISL,ioos:station:DISL:KATA:1,2013-03-01T06:00:00Z,30.2583,-88.2131,3.7,13.57,1111122 
DISL,ioos:station:DISL:KATA:1,2013-03-01T06:30:00Z,30.2583,-88.2131,3.689,13.49,1111122 
DISL,ioos:station:DISL:KATA:1,2013-03-01T07:00:00Z,30.2583,-88.2131,3.69,13.44,1111122 
DISL,ioos:station:DISL:KATA:1,2013-03-01T07:30:00Z,30.2583,-88.2131,3.689,13.5,1111122 
DISL,ioos:station:DISL:KATA:1,2013-03-01T08:00:00Z,30.2583,-88.2131,3.69,13.73,1111122 
DISL,ioos:station:DISL:KATA:1,2013-03-01T08:30:00Z,30.2583,-88.2131,3.695,13.63,1111122 
DISL,ioos:station:DISL:KATA:1,2013-03-01T09:00:00Z,30.2583,-88.2131,3.7,13.21,1111122 
DISL,ioos:station:DISL:KATA:1,2013-03-01T09:30:00Z,30.2583,-88.2131,3.691,13.36,1111122 
DISL,ioos:station:DISL:KATA:1,2013-03-01T10:00:00Z,30.2583,-88.2131,3.68,13.54,1111122 
DISL,ioos:station:DISL:KATA:1,2013-03-01T10:30:00Z,30.2583,-88.2131,3.686,12.81,1111122 
DISL,ioos:station:DISL:KATA:1,2013-03-01T11:00:00Z,30.2583,-88.2131,3.682,12.7,1111122 
DISL,ioos:station:DISL:KATA:1,2013-03-01T11:30:00Z,30.2583,-88.2131,3.697,12.75,1111122 
DISL,ioos:station:DISL:KATA:1,2013-03-01T12:00:00Z,30.2583,-88.2131,3.724,12.75,1111122 
DISL,ioos:station:DISL:KATA:1,2013-03-01T12:30:00Z,30.2583,-88.2131,3.743,13.36,1111122 
DISL,ioos:station:DISL:KATA:1,2013-03-01T13:00:00Z,30.2583,-88.2131,3.752,13.69,1111122 
DISL,ioos:station:DISL:KATA:1,2013-03-01T13:30:00Z,30.2583,-88.2131,3.759,12.8,1111122 
DISL,ioos:station:DISL:KATA:1,2013-03-01T14:00:00Z,30.2583,-88.2131,3.765,13.56,1111122 
DISL,ioos:station:DISL:KATA:1,2013-03-01T14:30:00Z,30.2583,-88.2131,3.763,13.51,1111122 
DISL,ioos:station:DISL:KATA:1,2013-03-01T15:00:00Z,30.2583,-88.2131,3.778,13.85,1111122 
DISL,ioos:station:DISL:KATA:1,2013-03-01T15:30:00Z,30.2583,-88.2131,3.814,13.8,1111122 
DISL,ioos:station:DISL:KATA:1,2013-03-01T16:00:00Z,30.2583,-88.2131,3.842,13.95,1111122 
DISL,ioos:station:DISL:KATA:1,2013-03-01T16:30:00Z,30.2583,-88.2131,3.877,13.86,1111122 
DISL,ioos:station:DISL:KATA:1,2013-03-01T17:00:00Z,30.2583,-88.2131,3.906,13.71,1111122 
DISL,ioos:station:DISL:KATA:1,2013-03-01T17:30:00Z,30.2583,-88.2131,3.912,13.67,1111122 
DISL,ioos:station:DISL:KATA:1,2013-03-01T18:00:00Z,30.2583,-88.2131,3.907,13.57,1111122 
DISL,ioos:station:DISL:KATA:1,2013-03-01T18:30:00Z,30.2583,-88.2131,3.909,13.63,1111122 
DISL,ioos:station:DISL:KATA:1,2013-03-01T19:00:00Z,30.2583,-88.2131,3.918,13.59,1111122 
DISL,ioos:station:DISL:KATA:1,2013-03-01T19:30:00Z,30.2583,-88.2131,3.922,13.57,1111122 
DISL,ioos:station:DISL:KATA:1,2013-03-01T20:00:00Z,30.2583,-88.2131,3.937,13.58,1111122 
DISL,ioos:station:DISL:KATA:1,2013-03-01T20:30:00Z,30.2583,-88.2131,3.927,13.62,1111122 
DISL,ioos:station:DISL:KATA:1,2013-03-01T21:00:00Z,30.2583,-88.2131,3.909,13.63,1111122 
DISL,ioos:station:DISL:KATA:1,2013-03-01T21:30:00Z,30.2583,-88.2131,3.892,13.62,1111122 
DISL,ioos:station:DISL:KATA:1,2013-03-01T22:00:00Z,30.2583,-88.2131,3.867,13.55,1111122 
DISL,ioos:station:DISL:KATA:1,2013-03-01T22:30:00Z,30.2583,-88.2131,3.856,13.46,1111122 
DISL,ioos:station:DISL:KATA:1,2013-03-01T23:00:00Z,30.2583,-88.2131,3.821,13.37,1111122 
DISL,ioos:station:DISL:KATA:1,2013-03-01T23:30:00Z,30.2583,-88.2131,3.789,13.24,1111122 
DISL,ioos:station:DISL:KATA:1,2013-03-02T00:00:00Z,30.2583,-88.2131,3.763,13.22,1111122 
DISL,ioos:station:DISL:KATA:1,2013-03-02T00:30:00Z,30.2583,-88.2131,3.726,12.83,1111122 
DISL,ioos:station:DISL:KATA:1,2013-03-02T01:00:00Z,30.2583,-88.2131,3.685,12.63,1111122 
DISL,ioos:station:DISL:KATA:1,2013-03-02T01:30:00Z,30.2583,-88.2131,3.64,11.97,1111122 
DISL,ioos:station:DISL:KATA:1,2013-03-02T02:00:00Z,30.2583,-88.2131,3.608,11.48,1111122 
DISL,ioos:station:DISL:KATA:1,2013-03-02T02:30:00Z,30.2583,-88.2131,3.583,10.89,1111122 
DISL,ioos:station:DISL:KATA:1,2013-03-02T03:00:00Z,30.2583,-88.2131,3.553,10.65,1111122 
DISL,ioos:station:DISL:KATA:1,2013-03-02T03:30:00Z,30.2583,-88.2131,3.568,10.08,1111122 
DISL,ioos:station:DISL:KATA:1,2013-03-02T04:00:00Z,30.2583,-88.2131,3.566,9.45,1111122 
DISL,ioos:station:DISL:KATA:1,2013-03-02T04:30:00Z,30.2583,-88.2131,3.541,8.79,1111122 
DISL,ioos:station:DISL:KATA:1,2013-03-02T05:00:00Z,30.2583,-88.2131,3.474,8.16,1111122 
DISL,ioos:station:DISL:KATA:1,2013-03-02T05:30:00Z,30.2583,-88.2131,3.444,7.86,1111122 
DISL,ioos:station:DISL:KATA:1,2013-03-02T06:00:00Z,30.2583,-88.2131,3.442,7.86,1111122 
DISL,ioos:station:DISL:KATA:1,2013-03-02T06:30:00Z,30.2583,-88.2131,3.438,8.03,1111122 
DISL,ioos:station:DISL:KATA:1,2013-03-02T07:00:00Z,30.2583,-88.2131,3.468,7.63,1111122 
DISL,ioos:station:DISL:KATA:1,2013-03-02T07:30:00Z,30.2583,-88.2131,3.506,7.44,1111122 
DISL,ioos:station:DISL:KATA:1,2013-03-02T08:00:00Z,30.2583,-88.2131,3.547,7.78,1111122 
DISL,ioos:station:DISL:KATA:1,2013-03-02T08:30:00Z,30.2583,-88.2131,3.61,7.87,1111122 
DISL,ioos:station:DISL:KATA:1,2013-03-02T09:00:00Z,30.2583,-88.2131,3.665,9.41,1111122 
DISL,ioos:station:DISL:KATA:1,2013-03-02T09:30:00Z,30.2583,-88.2131,3.702,9.16,1111122 
DISL,ioos:station:DISL:KATA:1,2013-03-02T10:00:00Z,30.2583,-88.2131,3.717,9.63,1111122 
DISL,ioos:station:DISL:KATA:1,2013-03-02T10:30:00Z,30.2583,-88.2131,3.714,9.92,1111122 
DISL,ioos:station:DISL:KATA:1,2013-03-02T11:00:00Z,30.2583,-88.2131,3.703,9.71,1111122 
DISL,ioos:station:DISL:KATA:1,2013-03-02T11:30:00Z,30.2583,-88.2131,3.686,9.68,1111122 
DISL,ioos:station:DISL:KATA:1,2013-03-02T12:00:00Z,30.2583,-88.2131,3.68,9.56,1111122 
DISL,ioos:station:DISL:KATA:1,2013-03-02T12:30:00Z,30.2583,-88.2131,3.699,9.59,1111122 
DISL,ioos:station:DISL:KATA:1,2013-03-02T13:00:00Z,30.2583,-88.2131,3.726,9.83,1111122 
DISL,ioos:station:DISL:KATA:1,2013-03-02T13:30:00Z,30.2583,-88.2131,3.754,9.98,1111122 
DISL,ioos:station:DISL:KATA:1,2013-03-02T14:00:00Z,30.2583,-88.2131,3.776,9.14,1111122 
DISL,ioos:station:DISL:KATA:1,2013-03-02T14:30:00Z,30.2583,-88.2131,3.806,9.08,1111122 
DISL,ioos:station:DISL:KATA:1,2013-03-02T15:00:00Z,30.2583,-88.2131,3.831,9.06,1111122 
DISL,ioos:station:DISL:KATA:1,2013-03-02T15:30:00Z,30.2583,-88.2131,3.853,9.17,1111122 
DISL,ioos:station:DISL:KATA:1,2013-03-02T16:00:00Z,30.2583,-88.2131,3.868,9.49,1111122 
DISL,ioos:station:DISL:KATA:1,2013-03-02T16:30:00Z,30.2583,-88.2131,3.885,9.58,1111122 
DISL,ioos:station:DISL:KATA:1,2013-03-02T17:00:00Z,30.2583,-88.2131,3.915,9.75,1111122 
DISL,ioos:station:DISL:KATA:1,2013-03-02T17:30:00Z,30.2583,-88.2131,3.945,9.8,1111122 
DISL,ioos:station:DISL:KATA:1,2013-03-02T18:00:00Z,30.2583,-88.2131,3.969,9.86,1111122 
DISL,ioos:station:DISL:KATA:1,2013-03-02T18:30:00Z,30.2583,-88.2131,4.01,9.95,1111122 
DISL,ioos:station:DISL:KATA:1,2013-03-02T19:00:00Z,30.2583,-88.2131,4.013,9.91,1111122 
DISL,ioos:station:DISL:KATA:1,2013-03-02T19:30:00Z,30.2583,-88.2131,4.013,10.0,1111122 
DISL,ioos:station:DISL:KATA:1,2013-03-02T20:00:00Z,30.2583,-88.2131,4.006,10.03,1111122 
DISL,ioos:station:DISL:KATA:1,2013-03-02T20:30:00Z,30.2583,-88.2131,3.989,10.16,1111122 
DISL,ioos:station:DISL:KATA:1,2013-03-02T21:00:00Z,30.2583,-88.2131,3.966,10.25,1111122 
DISL,ioos:station:DISL:KATA:1,2013-03-02T21:30:00Z,30.2583,-88.2131,3.874,10.3,1111122 
DISL,ioos:station:DISL:KATA:1,2013-03-02T22:00:00Z,30.2583,-88.2131,3.893,10.25,1111122 
DISL,ioos:station:DISL:KATA:1,2013-03-02T22:30:00Z,30.2583,-88.2131,3.844,10.18,1111122 
DISL,ioos:station:DISL:KATA:1,2013-03-02T23:00:00Z,30.2583,-88.2131,3.827,10.05,1111122 
DISL,ioos:station:DISL:KATA:1,2013-03-02T23:30:00Z,30.2583,-88.2131,3.762,9.9,1111122 
DISL,ioos:station:DISL:KATA:1,2013-03-03T00:00:00Z,30.2583,-88.2131,3.706,9.71,1111122 
DISL,ioos:station:DISL:KATA:1,2013-03-03T00:30:00Z,30.2583,-88.2131,3.674,9.57,1111122 
DISL,ioos:station:DISL:KATA:1,2013-03-03T01:00:00Z,30.2583,-88.2131,3.629,9.37,1111122 
DISL,ioos:station:DISL:KATA:1,2013-03-03T01:30:00Z,30.2583,-88.2131,3.578,9.09,1111122 
DISL,ioos:station:DISL:KATA:1,2013-03-03T02:00:00Z,30.2583,-88.2131,3.537,8.79,1111122 
DISL,ioos:station:DISL:KATA:1,2013-03-03T02:30:00Z,30.2583,-88.2131,3.504,8.53,1111122 
DISL,ioos:station:DISL:KATA:1,2013-03-03T03:00:00Z,30.2583,-88.2131,3.464,8.33,1111122 
DISL,ioos:station:DISL:KATA:1,2013-03-03T03:30:00Z,30.2583,-88.2131,3.441,8.21,1111122 
DISL,ioos:station:DISL:KATA:1,2013-03-03T04:00:00Z,30.2583,-88.2131,3.451,8.09,1111122 
DISL,ioos:station:DISL:KATA:1,2013-03-03T04:30:00Z,30.2583,-88.2131,3.453,7.94,1111122 
DISL,ioos:station:DISL:KATA:1,2013-03-03T05:00:00Z,30.2583,-88.2131,3.353,7.78,1111122 
DISL,ioos:station:DISL:KATA:1,2013-03-03T05:30:00Z,30.2583,-88.2131,3.438,7.69,1111122 
DISL,ioos:station:DISL:KATA:1,2013-03-03T06:00:00Z,30.2583,-88.2131,3.413,7.49,1111122 
DISL,ioos:station:DISL:KATA:1,2013-03-03T06:30:00Z,30.2583,-88.2131,3.408,7.34,1111122 
DISL,ioos:station:DISL:KATA:1,2013-03-03T07:00:00Z,30.2583,-88.2131,3.417,7.16,1111122 
DISL,ioos:station:DISL:KATA:1,2013-03-03T07:30:00Z,30.2583,-88.2131,3.429,6.83,1111122 
DISL,ioos:station:DISL:KATA:1,2013-03-03T08:00:00Z,30.2583,-88.2131,3.426,6.43,1111122 
DISL,ioos:station:DISL:KATA:1,2013-03-03T08:30:00Z,30.2583,-88.2131,3.449,6.22,1111122 
DISL,ioos:station:DISL:KATA:1,2013-03-03T09:00:00Z,30.2583,-88.2131,3.464,6.05,1111122 
DISL,ioos:station:DISL:KATA:1,2013-03-03T09:30:00Z,30.2583,-88.2131,3.471,5.94,1111122 
DISL,ioos:station:DISL:KATA:1,2013-03-03T10:00:00Z,30.2583,-88.2131,3.486,5.88,1111122 
DISL,ioos:station:DISL:KATA:1,2013-03-03T10:30:00Z,30.2583,-88.2131,3.494,6.95,1111122 
DISL,ioos:station:DISL:KATA:1,2013-03-03T11:00:00Z,30.2583,-88.2131,3.493,7.49,1111122 
DISL,ioos:station:DISL:KATA:1,2013-03-03T11:30:00Z,30.2583,-88.2131,3.519,7.86,1111122 
DISL,ioos:station:DISL:KATA:1,2013-03-03T12:00:00Z,30.2583,-88.2131,3.547,7.97,1111122 
DISL,ioos:station:DISL:KATA:1,2013-03-03T12:30:00Z,30.2583,-88.2131,3.573,7.71,1111122 
DISL,ioos:station:DISL:KATA:1,2013-03-03T13:00:00Z,30.2583,-88.2131,3.606,7.66,1111122 
DISL,ioos:station:DISL:KATA:1,2013-03-03T13:30:00Z,30.2583,-88.2131,3.635,6.83,1111122 
DISL,ioos:station:DISL:KATA:1,2013-03-03T14:00:00Z,30.2583,-88.2131,3.663,6.51,1111122 
DISL,ioos:station:DISL:KATA:1,2013-03-03T14:30:00Z,30.2583,-88.2131,3.686,6.47,1111122 
DISL,ioos:station:DISL:KATA:1,2013-03-03T15:00:00Z,30.2583,-88.2131,3.703,6.57,1111122 
DISL,ioos:station:DISL:KATA:1,2013-03-03T15:30:00Z,30.2583,-88.2131,3.716,6.8,1111122 
DISL,ioos:station:DISL:KATA:1,2013-03-03T16:00:00Z,30.2583,-88.2131,3.73,6.86,1111122 
DISL,ioos:station:DISL:KATA:1,2013-03-03T16:30:00Z,30.2583,-88.2131,3.756,7.46,1111122 
DISL,ioos:station:DISL:KATA:1,2013-03-03T17:00:00Z,30.2583,-88.2131,3.796,7.83,1111122 
DISL,ioos:station:DISL:KATA:1,2013-03-03T17:30:00Z,30.2583,-88.2131,3.831,7.99,1111122 
DISL,ioos:station:DISL:KATA:1,2013-03-03T18:00:00Z,30.2583,-88.2131,3.874,8.26,1111122 
DISL,ioos:station:DISL:KATA:1,2013-03-03T18:30:00Z,30.2583,-88.2131,3.917,8.43,1111122 
DISL,ioos:station:DISL:KATA:1,2013-03-03T19:00:00Z,30.2583,-88.2131,3.932,8.58,1111122 
DISL,ioos:station:DISL:KATA:1,2013-03-03T19:30:00Z,30.2583,-88.2131,3.95,8.63,1111122 
DISL,ioos:station:DISL:KATA:1,2013-03-03T20:00:00Z,30.2583,-88.2131,3.946,8.69,1111122 
DISL,ioos:station:DISL:KATA:1,2013-03-03T20:30:00Z,30.2583,-88.2131,3.94,8.78,1111122 
DISL,ioos:station:DISL:KATA:1,2013-03-03T21:00:00Z,30.2583,-88.2131,3.929,8.95,1111122 
DISL,ioos:station:DISL:KATA:1,2013-03-03T21:30:00Z,30.2583,-88.2131,3.919,8.95,1111122 
DISL,ioos:station:DISL:KATA:1,2013-03-03T22:00:00Z,30.2583,-88.2131,3.908,8.98,1111122 
DISL,ioos:station:DISL:KATA:1,2013-03-03T22:30:00Z,30.2583,-88.2131,3.9,9.02,1111122 
DISL,ioos:station:DISL:KATA:1,2013-03-03T23:00:00Z,30.2583,-88.2131,3.888,9.04,1111122 
DISL,ioos:station:DISL:KATA:1,2013-03-03T23:30:00Z,30.2583,-88.2131,3.865,9.05,1111122 
DISL,ioos:station:DISL:KATA:1,2013-03-04T00:00:00Z,30.2583,-88.2131,3.843,9.05,1111122 
DISL,ioos:station:DISL:KATA:1,2013-03-04T00:30:00Z,30.2583,-88.2131,3.816,9.03,1111122 
DISL,ioos:station:DISL:KATA:1,2013-03-04T01:00:00Z,30.2583,-88.2131,3.785,9.04,1111122 
DISL,ioos:station:DISL:KATA:1,2013-03-04T01:30:00Z,30.2583,-88.2131,3.739,8.98,1111122 
DISL,ioos:station:DISL:KATA:1,2013-03-04T02:00:00Z,30.2583,-88.2131,3.689,9.02,1111122 
DISL,ioos:station:DISL:KATA:1,2013-03-04T02:30:00Z,30.2583,-88.2131,3.65,8.91,1111122 
DISL,ioos:station:DISL:KATA:1,2013-03-04T03:00:00Z,30.2583,-88.2131,3.618,8.6,1111122 
DISL,ioos:station:DISL:KATA:1,2013-03-04T03:30:00Z,30.2583,-88.2131,3.581,8.54,1111122 
DISL,ioos:station:DISL:KATA:1,2013-03-04T04:00:00Z,30.2583,-88.2131,3.555,8.44,1111122 
DISL,ioos:station:DISL:KATA:1,2013-03-04T04:30:00Z,30.2583,-88.2131,3.528,8.33,1111122 
DISL,ioos:station:DISL:KATA:1,2013-03-04T05:00:00Z,30.2583,-88.2131,3.497,8.11,1111122 
DISL,ioos:station:DISL:KATA:1,2013-03-04T05:30:00Z,30.2583,-88.2131,3.461,8.03,1111122 
DISL,ioos:station:DISL:KATA:1,2013-03-04T06:00:00Z,30.2583,-88.2131,3.437,7.85,1111122 
DISL,ioos:station:DISL:KATA:1,2013-03-04T06:30:00Z,30.2583,-88.2131,3.422,7.7,1111122 
DISL,ioos:station:DISL:KATA:1,2013-03-04T07:00:00Z,30.2583,-88.2131,3.421,7.64,1111122 
DISL,ioos:station:DISL:KATA:1,2013-03-04T07:30:00Z,30.2583,-88.2131,3.433,7.62,1111122 
DISL,ioos:station:DISL:KATA:1,2013-03-04T08:00:00Z,30.2583,-88.2131,3.445,7.66,1111122 
DISL,ioos:station:DISL:KATA:1,2013-03-04T08:30:00Z,30.2583,-88.2131,3.471,7.66,1111122 
DISL,ioos:station:DISL:KATA:1,2013-03-04T09:00:00Z,30.2583,-88.2131,3.493,7.64,1111122 
DISL,ioos:station:DISL:KATA:1,2013-03-04T09:30:00Z,30.2583,-88.2131,3.513,7.83,1111122 
DISL,ioos:station:DISL:KATA:1,2013-03-04T10:00:00Z,30.2583,-88.2131,3.538,8.11,1111122 
DISL,ioos:station:DISL:KATA:1,2013-03-04T10:30:00Z,30.2583,-88.2131,3.563,8.45,1111122 
DISL,ioos:station:DISL:KATA:1,2013-03-04T11:00:00Z,30.2583,-88.2131,3.583,8.89,1111122 
DISL,ioos:station:DISL:KATA:1,2013-03-04T11:30:00Z,30.2583,-88.2131,3.602,9.05,1111122 
DISL,ioos:station:DISL:KATA:1,2013-03-04T12:00:00Z,30.2583,-88.2131,3.622,9.3,1111122 
DISL,ioos:station:DISL:KATA:1,2013-03-04T12:30:00Z,30.2583,-88.2131,3.654,9.39,1111122 
DISL,ioos:station:DISL:KATA:1,2013-03-04T13:00:00Z,30.2583,-88.2131,3.687,9.69,1111122 
DISL,ioos:station:DISL:KATA:1,2013-03-04T13:30:00Z,30.2583,-88.2131,3.722,9.8,1111122 
DISL,ioos:station:DISL:KATA:1,2013-03-04T14:00:00Z,30.2583,-88.2131,3.763,9.77,1111122 
DISL,ioos:station:DISL:KATA:1,2013-03-04T14:30:00Z,30.2583,-88.2131,3.804,9.83,1111122 
DISL,ioos:station:DISL:KATA:1,2013-03-04T15:00:00Z,30.2583,-88.2131,3.841,10.2,1111122 
DISL,ioos:station:DISL:KATA:1,2013-03-04T15:30:00Z,30.2583,-88.2131,3.874,10.36,1111122 
DISL,ioos:station:DISL:KATA:1,2013-03-04T16:00:00Z,30.2583,-88.2131,3.902,10.43,1111122 
DISL,ioos:station:DISL:KATA:1,2013-03-04T16:30:00Z,30.2583,-88.2131,3.93,10.53,1111122 
DISL,ioos:station:DISL:KATA:1,2013-03-04T17:00:00Z,30.2583,-88.2131,3.956,10.73,1111122 
DISL,ioos:station:DISL:KATA:1,2013-03-04T17:30:00Z,30.2583,-88.2131,4.124,2.68,1111122 
DISL,ioos:station:DISL:KATA:1,2013-03-04T18:00:00Z,30.2583,-88.2131,4.152,2.65,1111122 
DISL,ioos:station:DISL:KATA:1,2013-03-04T18:30:00Z,30.2583,-88.2131,4.183,2.66,1111122 
DISL,ioos:station:DISL:KATA:1,2013-03-04T19:00:00Z,30.2583,-88.2131,4.21,2.66,1111122 
DISL,ioos:station:DISL:KATA:1,2013-03-04T19:30:00Z,30.2583,-88.2131,4.235,2.7,1111122 
DISL,ioos:station:DISL:KATA:1,2013-03-04T20:00:00Z,30.2583,-88.2131,4.24,2.76,1111122 
DISL,ioos:station:DISL:KATA:1,2013-03-04T20:30:00Z,30.2583,-88.2131,4.252,2.8,1111122 
DISL,ioos:station:DISL:KATA:1,2013-03-04T21:00:00Z,30.2583,-88.2131,4.254,2.81,1111122 
DISL,ioos:station:DISL:KATA:1,2013-03-04T21:30:00Z,30.2583,-88.2131,4.234,2.82,1111122 
DISL,ioos:station:DISL:KATA:1,2013-03-04T22:00:00Z,30.2583,-88.2131,4.216,2.81,1111122 
DISL,ioos:station:DISL:KATA:1,2013-03-04T22:30:00Z,30.2583,-88.2131,4.199,2.82,1111122 
DISL,ioos:station:DISL:KATA:1,2013-03-04T23:00:00Z,30.2583,-88.2131,4.174,2.78,1111122 
DISL,ioos:station:DISL:KATA:1,2013-03-04T23:30:00Z,30.2583,-88.2131,4.158,2.72,1111122 
DISL,ioos:station:DISL:KATA:1,2013-03-05T00:00:00Z,30.2583,-88.2131,4.118,2.66,1111122 
DISL,ioos:station:DISL:KATA:1,2013-03-05T00:30:00Z,30.2583,-88.2131,4.088,2.63,1111122 
DISL,ioos:station:DISL:KATA:1,2013-03-05T01:00:00Z,30.2583,-88.2131,4.048,2.52,1111122 
DISL,ioos:station:DISL:KATA:1,2013-03-05T01:30:00Z,30.2583,-88.2131,4.013,2.54,1111122 
DISL,ioos:station:DISL:KATA:1,2013-03-05T02:00:00Z,30.2583,-88.2131,3.97,2.51,1111122 
DISL,ioos:station:DISL:KATA:1,2013-03-05T02:30:00Z,30.2583,-88.2131,3.937,2.5,1111122 
DISL,ioos:station:DISL:KATA:1,2013-03-05T03:00:00Z,30.2583,-88.2131,3.897,2.47,1111122 
DISL,ioos:station:DISL:KATA:1,2013-03-05T03:30:00Z,30.2583,-88.2131,3.863,2.45,1111122 
DISL,ioos:station:DISL:KATA:1,2013-03-05T04:00:00Z,30.2583,-88.2131,3.832,2.44,1111122 
DISL,ioos:station:DISL:KATA:1,2013-03-05T04:30:00Z,30.2583,-88.2131,3.807,2.38,1111122 
DISL,ioos:station:DISL:KATA:1,2013-03-05T05:00:00Z,30.2583,-88.2131,3.787,2.31,1111122 
DISL,ioos:station:DISL:KATA:1,2013-03-05T05:30:00Z,30.2583,-88.2131,3.767,2.56,1111122 
DISL,ioos:station:DISL:KATA:1,2013-03-05T06:00:00Z,30.2583,-88.2131,3.745,2.58,1111122 
DISL,ioos:station:DISL:KATA:1,2013-03-05T06:30:00Z,30.2583,-88.2131,3.724,2.57,1111122 
DISL,ioos:station:DISL:KATA:1,2013-03-05T07:00:00Z,30.2583,-88.2131,3.715,2.55,1111122 
DISL,ioos:station:DISL:KATA:1,2013-03-05T07:30:00Z,30.2583,-88.2131,3.703,2.55,1111122 
DISL,ioos:station:DISL:KATA:1,2013-03-05T08:00:00Z,30.2583,-88.2131,3.698,2.59,1111122 
DISL,ioos:station:DISL:KATA:1,2013-03-05T08:30:00Z,30.2583,-88.2131,3.695,2.6,1111122 
DISL,ioos:station:DISL:KATA:1,2013-03-05T09:00:00Z,30.2583,-88.2131,3.696,2.92,1111122 
DISL,ioos:station:DISL:KATA:1,2013-03-05T09:30:00Z,30.2583,-88.2131,3.71,2.97,1111122 
DISL,ioos:station:DISL:KATA:1,2013-03-05T10:00:00Z,30.2583,-88.2131,3.729,3.03,1111122 
DISL,ioos:station:DISL:KATA:1,2013-03-05T10:30:00Z,30.2583,-88.2131,3.745,3.14,1111122 
DISL,ioos:station:DISL:KATA:1,2013-03-05T11:00:00Z,30.2583,-88.2131,3.773,2.74,1111122 
DISL,ioos:station:DISL:KATA:1,2013-03-05T11:30:00Z,30.2583,-88.2131,3.79,3.24,1111122 
DISL,ioos:station:DISL:KATA:1,2013-03-05T12:00:00Z,30.2583,-88.2131,3.8,3.22,1111122 
DISL,ioos:station:DISL:KATA:1,2013-03-05T12:30:00Z,30.2583,-88.2131,3.821,3.34,1111122 
DISL,ioos:station:DISL:KATA:1,2013-03-05T13:00:00Z,30.2583,-88.2131,3.866,3.45,1111122 
DISL,ioos:station:DISL:KATA:1,2013-03-05T13:30:00Z,30.2583,-88.2131,3.915,3.52,1111122 
DISL,ioos:station:DISL:KATA:1,2013-03-05T14:00:00Z,30.2583,-88.2131,3.953,3.57,1111122 
DISL,ioos:station:DISL:KATA:1,2013-03-05T14:30:00Z,30.2583,-88.2131,3.985,3.62,1111122 
DISL,ioos:station:DISL:KATA:1,2013-03-05T15:00:00Z,30.2583,-88.2131,4.02,3.64,1111122 
DISL,ioos:station:DISL:KATA:1,2013-03-05T15:30:00Z,30.2583,-88.2131,4.061,3.65,1111122 
DISL,ioos:station:DISL:KATA:1,2013-03-05T16:00:00Z,30.2583,-88.2131,4.09,3.65,1111122 
DISL,ioos:station:DISL:KATA:1,2013-03-05T16:30:00Z,30.2583,-88.2131,4.12,3.71,1111122 
DISL,ioos:station:DISL:KATA:1,2013-03-05T17:00:00Z,30.2583,-88.2131,4.167,3.83,1111122 
DISL,ioos:station:DISL:KATA:1,2013-03-05T17:30:00Z,30.2583,-88.2131,4.199,3.94,1111122 
DISL,ioos:station:DISL:KATA:1,2013-03-05T18:00:00Z,30.2583,-88.2131,4.231,3.98,1111122 
DISL,ioos:station:DISL:KATA:1,2013-03-05T18:30:00Z,30.2583,-88.2131,4.273,4.0,1111122 
DISL,ioos:station:DISL:KATA:1,2013-03-05T19:00:00Z,30.2583,-88.2131,4.325,4.02,1111122 
DISL,ioos:station:DISL:KATA:1,2013-03-05T19:30:00Z,30.2583,-88.2131,4.366,4.1,1111122 
DISL,ioos:station:DISL:KATA:1,2013-03-05T20:00:00Z,30.2583,-88.2131,4.411,3.99,1111122 
DISL,ioos:station:DISL:KATA:1,2013-03-05T20:30:00Z,30.2583,-88.2131,4.441,3.95,1111122 
DISL,ioos:station:DISL:KATA:1,2013-03-05T21:00:00Z,30.2583,-88.2131,4.464,4.19,1111122 
DISL,ioos:station:DISL:KATA:1,2013-03-05T21:30:00Z,30.2583,-88.2131,4.483,4.2,1111122 
DISL,ioos:station:DISL:KATA:1,2013-03-05T22:00:00Z,30.2583,-88.2131,4.482,4.18,1111122 
DISL,ioos:station:DISL:KATA:1,2013-03-05T22:30:00Z,30.2583,-88.2131,4.461,4.13,1111122 
DISL,ioos:station:DISL:KATA:1,2013-03-05T23:00:00Z,30.2583,-88.2131,4.442,4.04,1111122 
DISL,ioos:station:DISL:KATA:1,2013-03-05T23:30:00Z,30.2583,-88.2131,4.439,3.95,1111122 
DISL,ioos:station:DISL:KATA:1,2013-03-06T00:00:00Z,30.2583,-88.2131,4.393,3.84,1111122 
DISL,ioos:station:DISL:KATA:1,2013-03-06T00:30:00Z,30.2583,-88.2131,4.351,3.78,1111122 
DISL,ioos:station:DISL:KATA:1,2013-03-06T01:00:00Z,30.2583,-88.2131,4.355,3.67,1111122 
DISL,ioos:station:DISL:KATA:1,2013-03-06T01:30:00Z,30.2583,-88.2131,4.34,3.54,1111122 
DISL,ioos:station:DISL:KATA:1,2013-03-06T02:00:00Z,30.2583,-88.2131,4.256,3.27,1111122 
DISL,ioos:station:DISL:KATA:1,2013-03-06T02:30:00Z,30.2583,-88.2131,4.179,3.27,1111122 
DISL,ioos:station:DISL:KATA:1,2013-03-06T03:00:00Z,30.2583,-88.2131,4.103,3.16,1111122 
DISL,ioos:station:DISL:KATA:1,2013-03-06T03:30:00Z,30.2583,-88.2131,4.036,2.95,1111122 
DISL,ioos:station:DISL:KATA:1,2013-03-06T04:00:00Z,30.2583,-88.2131,3.981,2.89,1111122 
DISL,ioos:station:DISL:KATA:1,2013-03-06T04:30:00Z,30.2583,-88.2131,3.916,2.82,1111122 
DISL,ioos:station:DISL:KATA:1,2013-03-06T05:00:00Z,30.2583,-88.2131,3.822,2.74,1111122 
DISL,ioos:station:DISL:KATA:1,2013-03-06T05:30:00Z,30.2583,-88.2131,3.766,2.67,1111122 
DISL,ioos:station:DISL:KATA:1,2013-03-06T06:00:00Z,30.2583,-88.2131,3.721,2.62,1111122 
DISL,ioos:station:DISL:KATA:1,2013-03-06T06:30:00Z,30.2583,-88.2131,3.682,2.57,1111122 
DISL,ioos:station:DISL:KATA:1,2013-03-06T07:00:00Z,30.2583,-88.2131,3.66,2.44,1111122 
DISL,ioos:station:DISL:KATA:1,2013-03-06T07:30:00Z,30.2583,-88.2131,3.646,2.33,1111122 
DISL,ioos:station:DISL:KATA:1,2013-03-06T08:00:00Z,30.2583,-88.2131,3.658,2.26,1111122 
DISL,ioos:station:DISL:KATA:1,2013-03-06T08:30:00Z,30.2583,-88.2131,3.697,2.41,1111122 
DISL,ioos:station:DISL:KATA:1,2013-03-06T09:00:00Z,30.2583,-88.2131,3.732,1.89,1111122 
DISL,ioos:station:DISL:KATA:1,2013-03-06T09:30:00Z,30.2583,-88.2131,3.676,1.73,1111122 
DISL,ioos:station:DISL:KATA:1,2013-03-06T10:00:00Z,30.2583,-88.2131,3.658,1.6,1111122 
DISL,ioos:station:DISL:KATA:1,2013-03-06T10:30:00Z,30.2583,-88.2131,3.624,1.5,1111122 
DISL,ioos:station:DISL:KATA:1,2013-03-06T11:00:00Z,30.2583,-88.2131,3.6,1.44,1111122 
DISL,ioos:station:DISL:KATA:1,2013-03-06T11:30:00Z,30.2583,-88.2131,3.592,1.37,1111122 
DISL,ioos:station:DISL:KATA:1,2013-03-06T12:00:00Z,30.2583,-88.2131,3.597,1.4,1111122 
DISL,ioos:station:DISL:KATA:1,2013-03-06T12:30:00Z,30.2583,-88.2131,3.595,1.31,1111122 
DISL,ioos:station:DISL:KATA:1,2013-03-06T13:00:00Z,30.2583,-88.2131,3.603,1.26,1111122 
DISL,ioos:station:DISL:KATA:1,2013-03-06T13:30:00Z,30.2583,-88.2131,3.633,1.4,1111122 
DISL,ioos:station:DISL:KATA:1,2013-03-06T14:00:00Z,30.2583,-88.2131,3.682,1.37,1111122 
DISL,ioos:station:DISL:KATA:1,2013-03-06T14:30:00Z,30.2583,-88.2131,3.757,1.49,1111122 
DISL,ioos:station:DISL:KATA:1,2013-03-06T15:00:00Z,30.2583,-88.2131,3.821,1.85,1111122 